Content
SEND FEEDBACK

Daily
Averages
Monthly
Summary
United States of America

LAKE PLACID, NEW YORK


Home > North America > United States > New York
Elevation: 1984 feet     Latitude: 44 15N     Longitude: 073 59W

WEATHER
 
SELECT A DAY
Number of Records: 224,663;   Date Range: 1/1/95 - 7/20/14
 
SHARE

PRINT THIS DATA

[ ← Previous Day ]
WEATHER ALMANAC - MAY 17, 2013
[ Next Day → ]
[ °C ]   °F
Weather ElementAverageHighLow
Temperature48.8 °F61 °F (2:51 pm)37 °F (11:51 pm)
Dewpoint34.6 °F37.9 °F (6:51 am)28.9 °F (4:51 pm)
Humidity62.2 %86 % (11:51 pm)30 % (5:51 pm)
Barometer30.09 in30.25 in (11:51 pm)29.94 in (1:51 am)
Wind Speed4.2 mph9.2 mph (12:51 pm)
Wind Gust20.7 mph (2:51 pm)
Weather ElementAverage
Visibility10 mi
Wind DirectionENE (56.4 °)

Weather ElementTotal
Precipitation---
Heating Degree Days16 (Base 65)
Averaged from 28 records on May 17, 2013
WEATHER CONDITIONS BREAKOUT
WIND DIRECTION BREAKOUT
WEATHER BY HOUR - MAY 17, 2013
[ °C ]   °F
Local TimeTemperatureDewpointHumidityBarometerVisibilityWind DirectionWind SpeedGust SpeedPrecipitationEventsConditions
1:51 AM43.0 °F35.1 °F74 %29.94 in10.0 miVariable3.5 mphOvercast
2:51 AM43.0 °F36.0 °F76 %29.96 in10.0 miVariable4.6 mphOvercast
3:51 AM43.0 °F37.0 °F80 %29.97 in10.0 miVariable4.6 mphOvercast
4:16 AM42.8 °F37.4 °F81 %29.96 in10.0 miVariable3.5 mphOvercast
4:32 AM42.8 °F37.4 °F81 %29.97 in10.0 miVariable5.8 mphOvercast
4:51 AM43.0 °F37.0 °F80 %29.99 in10.0 miVariable6.9 mphOvercast
5:43 AM42.8 °F37.4 °F81 %30.00 in10.0 miVariable3.5 mphOvercast
5:51 AM42.1 °F37.0 °F82 %30.02 in10.0 miNNW (340°)4.6 mphOvercast
6:51 AM43.0 °F37.9 °F82 %30.06 in10.0 miCalmOvercast
7:51 AM44.1 °F37.0 °F76 %30.09 in10.0 miVariable3.5 mphOvercast
8:00 AM44.6 °F37.4 °F76 %30.06 in10.0 miWSW (250°)4.6 mphMostly Cloudy
8:24 AM46.4 °F37.4 °F71 %30.06 in10.0 miVariable6.9 mphScattered Clouds
8:51 AM48.0 °F37.9 °F68 %30.09 in10.0 miCalmScattered Clouds
9:51 AM51.1 °F35.1 °F54 %30.11 in10.0 miVariable4.6 mphPartly Cloudy
10:51 AM53.1 °F35.1 °F50 %30.12 in10.0 miVariable4.6 mphPartly Cloudy
11:51 AM57.0 °F34.0 °F42 %30.13 in10.0 miVariable6.9 mphMostly Cloudy
12:51 PM57.0 °F33.1 °F40 %30.13 in10.0 miNNW (330°)9.2 mphMostly Cloudy
1:51 PM59.0 °F33.1 °F38 %30.13 in10.0 miNorth (360°)9.2 mphScattered Clouds
2:51 PM61.0 °F30.9 °F32 %30.13 in10.0 miVariable5.8 mph20.7 mphMostly Cloudy
3:51 PM60.1 °F32.0 °F35 %30.14 in10.0 miVariable4.6 mphScattered Clouds
4:51 PM60.1 °F28.9 °F31 %30.14 in10.0 miVariable4.6 mphMostly Cloudy
5:51 PM61.0 °F28.9 °F30 %30.14 in10.0 miWNW (300°)8.1 mphPartly Cloudy
6:51 PM60.1 °F28.9 °F31 %30.16 in10.0 miVariable6.9 mphMostly Cloudy
7:51 PM55.9 °F30.0 °F37 %30.17 in10.0 miCalmClear
8:51 PM45.0 °F34.0 °F65 %30.19 in10.0 miCalmClear
9:51 PM39.9 °F34.0 °F79 %30.22 in10.0 miCalmScattered Clouds
10:51 PM39.9 °F35.1 °F83 %30.23 in10.0 miCalmMostly Cloudy
11:51 PM37.0 °F33.1 °F86 %30.25 in10.0 miCalmMostly Cloudy
Hourly data recorded from KSLK, located miles away from Lake Placid, New York







STORIES FROM OUR PARTNERS